Location: Moscow
(30.9132°N, 94.8252°W)
Time: 04:54:19
(UTC+00:00)

Cosmos 371 Rocket - Pass Details

Date: 15 November 2025
Orbit: 674 x 690 km, 74.0° (Epoch: 04 December)

Event Time Altitude Azimuth Distance (km) Brightness Sun altitude
Rises 00:22:40 0° 173° (S) 3,017 6.7 -13.3°
Reaches altitude 10° 00:25:08 10° 164° (SSE) 2,109 5.8 -13.8°
Maximum altitude 00:29:22 33° 100° (E) 1,148 3.9 -14.7°
Enters shadow 00:31:31 22° 56° (NE) 1,466 4.4 -15.1°
